Wind_Speed
19 19 19 20 21 23 25 26 26 26 27 28 28 29 30 30 30 29 27 26 26 25 24 23 23 23 23 23 22 22 22 23 25 27 29 30 32 34 35 36 35 34
20 20 20 21 22 24 25 26 27 27 29 30 29 29 29 30 30 29 28 27 26 26 25 24 24 24 24 25 24 24 23 23 25 27 30 32 33 35 36 36 35 35
21 22 22 24 25 26 27 28 29 29 29 30 29 29 29 30 30 30 29 28 27 26 26 25 25 25 26 27 27 26 25 25 26 28 31 32 34 35 37 36 36 36
22 23 26 28 28 28 28 29 30 32 31 30 29 30 30 31 30 30 30 28 27 27 27 26 26 26 27 28 28 28 27 26 27 29 31 33 34 36 37 37 37 38
23 26 29 31 30 30 30 30 31 33 33 31 30 30 32 31 31 31 31 30 29 28 28 28 27 27 28 29 29 29 28 28 29 31 33 34 35 35 36 37 37 39
27 29 30 32 31 31 33 34 34 35 35 33 31 32 32 32 32 32 32 32 31 29 28 29 28 28 29 29 30 29 28 29 30 32 34 34 35 35 36 37 38 39
30 31 32 33 33 33 36 38 38 38 38 37 36 35 35 33 33 33 33 33 32 30 29 29 29 29 29 29 29 29 29 30 31 33 34 35 35 35 35 37 38 37
32 32 33 35 35 36 39 40 42 43 41 40 39 38 38 37 35 34 33 33 33 31 31 31 30 30 30 29 29 29 30 31 32 33 34 35 35 35 36 36 37 38
33 33 35 36 36 38 41 43 45 46 45 44 42 41 41 40 38 36 33 32 34 33 32 32 32 31 30 30 30 31 32 33 34 34 35 35 35 36 37 38 39 40
35 35 37 38 37 40 42 42 42 44 46 47 45 45 45 42 38 36 32 31 32 33 32 32 32 32 31 31 32 32 33 35 35 36 37 37 37 38 39 41 43 44
36 36 38 38 38 40 40 40 41 43 46 47 47 48 46 40 35 31 29 31 32 31 30 30 30 31 32 32 32 33 34 35 36 37 38 39 39 41 42 43 45 46
35 36 38 39 39 40 39 40 44 46 46 45 46 46 42 38 33 29 28 31 32 30 28 27 28 30 31 31 32 33 34 35 36 37 39 40 41 42 42 44 45 45
37 37 38 40 40 39 38 41 44 44 40 38 39 40 38 37 34 29 27 30 31 30 30 30 30 29 29 30 31 32 34 34 35 37 38 40 40 41 42 42 43 45
39 37 39 42 42 39 39 42 43 36 29 30 35 37 35 34 30 25 25 30 34 34 34 34 33 29 27 29 30 31 32 33 35 37 38 39 40 41 41 42 44 46
37 38 40 43 43 42 40 42 44 35 25 26 31 33 32 27 23 22 26 31 36 38 38 38 35 29 26 28 29 31 32 33 35 38 39 40 40 40 40 43 46 47
36 37 41 44 45 45 41 42 45 37 25 25 30 30 29 24 22 26 30 32 35 39 40 37 32 28 27 28 29 30 32 34 37 39 40 40 38 38 42 45 46 45
36 37 41 44 47 48 44 42 40 29 21 27 31 28 26 24 26 31 33 33 35 37 36 31 28 28 28 29 30 31 33 35 37 39 39 37 37 41 44 45 44 44
39 38 40 42 45 47 43 37 32 25 25 33 32 26 24 25 27 32 33 34 35 34 31 28 28 30 29 29 31 33 34 36 37 38 36 36 40 44 44 44 44 46
41 40 40 41 43 45 38 30 28 27 31 36 34 26 24 24 27 30 32 33 33 31 29 29 30 30 29 30 32 34 36 37 36 35 35 38 43 44 43 44 46 47
41 41 41 41 43 42 34 28 27 28 31 37 36 29 25 26 28 29 31 32 31 29 29 30 30 28 29 30 32 36 40 39 34 33 37 40 42 43 44 45 47 48
41 43 44 45 44 39 31 29 31 31 33 38 37 31 29 29 29 30 30 29 27 28 29 29 28 29 30 32 37 42 41 34 31 34 38 40 42 43 45 46 47 47
42 44 45 47 45 36 30 32 35 33 34 35 33 31 30 30 30 30 28 26 26 28 28 28 29 31 33 38 44 43 35 29 31 36 38 39 41 43 45 46 46 46
43 44 46 47 43 35 32 35 35 33 33 32 30 29 29 30 30 28 26 26 27 28 28 29 32 33 36 41 41 32 26 29 35 37 37 39 42 43 45 46 46 46
44 45 46 46 43 39 38 38 34 32 30 28 27 28 28 29 28 27 26 25 26 26 27 28 31 34 38 41 35 27 27 35 39 38 40 41 42 43 45 46 46 46
45 46 46 46 45 45 44 41 37 34 30 26 26 28 29 30 29 28 27 25 24 24 26 29 33 37 40 41 35 32 35 40 40 40 42 42 42 45 46 46 46 45
46 46 45 44 44 44 44 43 41 37 32 29 29 30 30 31 29 28 27 25 24 26 31 34 36 38 39 39 36 35 38 41 42 41 41 42 44 46 46 46 44 42
Wind_Direction
299 303 305 305 303 300 299 298 298 298 296 295 294 296 298 299 300 301 303 304 304 305 306 306 305 303 302 302 303 305 306 307 308 309 311 312 313 313 313 312 312 313
299 302 303 301 299 296 294 294 295 295 295 295 297 299 299 298 298 300 302 304 304 304 305 306 306 304 303 302 302 303 304 305 307 308 310 310 311 312 312 312 311 312
299 300 299 296 293 292 292 293 294 294 294 296 298 298 296 294 294 296 300 302 302 302 303 305 306 305 303 302 302 302 303 305 306 307 308 309 309 310 311 311 311 312
298 298 296 293 292 292 291 292 294 295 296 296 296 294 292 291 292 294 297 299 298 298 299 302 304 304 303 301 301 301 303 305 306 307 307 307 308 308 310 311 312 312
296 295 294 294 296 297 294 292 293 293 293 292 293 292 292 293 293 294 295 296 296 295 295 298 302 303 301 300 300 300 303 306 307 307 307 307 307 308 310 312 312 312
298 297 297 299 301 300 296 293 291 290 289 287 288 288 288 291 293 294 294 294 294 293 292 295 299 300 300 299 299 300 303 306 308 307 307 306 306 308 310 312 312 311
303 303 303 304 303 298 293 290 287 286 285 283 285 286 284 283 286 289 291 291 293 293 291 293 297 298 298 299 299 301 304 305 306 306 306 306 306 307 309 311 310 309
311 310 306 304 302 296 292 291 288 286 283 281 283 286 284 281 282 283 284 287 290 290 290 292 295 296 297 298 298 300 302 303 304 305 305 305 305 305 307 308 308 307
316 314 307 303 302 298 296 296 293 289 287 284 283 285 284 283 283 282 279 281 285 287 289 291 292 293 293 295 297 299 301 302 304 304 304 303 303 303 303 305 305 306
314 311 307 305 305 303 301 299 296 293 292 289 286 287 286 282 283 283 278 278 282 285 286 288 289 290 290 292 296 299 301 302 303 303 302 301 299 300 300 301 303 305
310 308 307 306 306 304 301 298 295 294 295 293 291 290 286 280 281 282 278 278 283 283 284 288 290 290 289 291 295 299 301 302 302 302 300 299 298 298 299 299 301 304
308 307 308 307 306 304 299 295 293 290 291 295 295 292 284 279 282 281 275 278 281 278 278 286 293 292 289 290 294 298 300 301 301 301 300 299 298 298 299 299 301 304
309 309 310 307 305 303 297 292 293 292 292 297 302 299 289 284 285 281 276 281 282 276 273 282 295 294 288 290 295 298 300 300 300 300 299 299 299 299 299 300 302 304
310 312 311 306 304 304 299 295 294 295 299 304 307 305 296 288 285 283 289 294 288 277 273 281 293 294 288 291 296 298 300 300 300 300 299 298 299 299 299 301 303 305
311 312 309 305 304 302 299 294 290 288 296 307 307 302 294 285 280 289 300 299 288 278 275 281 289 291 288 291 295 296 298 298 299 298 297 298 298 298 300 303 305 306
312 311 309 308 308 306 301 296 290 282 286 307 312 306 295 282 280 294 301 297 288 281 279 283 287 286 285 288 292 293 295 296 296 296 297 298 299 300 303 305 306 308
312 311 310 311 311 310 306 299 290 279 286 311 317 309 296 286 287 294 297 292 285 280 280 283 283 282 283 287 290 291 293 294 295 295 298 300 301 303 306 307 309 311
311 311 312 311 310 310 306 296 290 287 295 309 314 304 293 289 286 286 288 285 280 278 280 283 281 281 283 287 290 291 292 294 295 296 299 301 303 306 308 310 312 313
310 310 310 309 309 311 306 294 294 297 296 302 306 296 288 289 285 281 281 279 277 278 281 281 280 282 286 291 292 292 295 297 297 297 299 301 305 308 310 312 313 313
308 308 308 308 311 312 304 294 300 305 299 300 301 293 287 290 290 284 280 277 278 280 279 279 281 287 292 294 293 296 301 300 296 296 299 303 308 310 311 312 312 311
306 308 309 309 311 308 299 295 302 304 298 297 297 292 289 292 293 288 282 280 279 277 277 280 287 292 295 295 296 299 300 297 294 298 304 308 310 310 309 310 310 310
305 308 309 310 309 304 296 298 302 300 296 294 292 289 290 295 296 292 287 285 283 279 280 286 290 291 291 295 297 296 293 294 300 305 307 308 308 307 308 310 311 311
303 306 307 307 305 301 298 301 302 298 295 292 288 287 292 297 298 292 290 290 287 283 284 287 287 287 291 298 298 290 289 303 310 310 309 308 307 307 309 311 312 312
301 303 304 304 303 302 303 304 302 298 294 288 285 288 293 296 295 292 291 289 283 282 285 285 286 289 295 302 298 283 291 309 314 311 309 307 306 308 311 312 312 311
299 301 302 302 302 302 303 304 304 301 295 288 285 289 294 297 295 291 287 281 274 279 286 290 293 297 300 302 294 282 291 308 312 309 307 306 306 309 311 311 310 308
298 299 299 299 300 301 302 304 306 304 299 295 294 294 296 298 293 286 283 278 274 282 291 296 300 301 301 299 292 285 293 304 307 305 304 305 307 309 309 309 307 305
Height
5901 5900 5900 5899 5898 5897 5895 5894 5894 5893 5892 5891 5890 5890 5889 5888 5887 5886 5886 5885 5884 5883 5882 5881 5880 5879 5878 5877 5876 5875 5873 5872 5871 5870 5869 5868 5867 5866 5864 5863 5861 5859
5899 5898 5897 5896 5895 5894 5892 5891 5890 5889 5888 5888 5888 5888 5886 5885 5884 5883 5882 5882 5881 5880 5879 5878 5877 5876 5876 5875 5873 5872 5870 5869 5868 5867 5866 5865 5864 5862 5861 5859 5858 5856
5896 5896 5895 5893 5892 5891 5889 5888 5887 5886 5886 5886 5885 5884 5883 5881 5880 5879 5879 5878 5878 5877 5876 5875 5874 5873 5872 5871 5870 5868 5866 5865 5864 5863 5862 5861 5860 5859 5857 5856 5854 5853
5895 5894 5892 5890 5889 5888 5887 5887 5885 5884 5884 5883 5883 5881 5879 5878 5877 5876 5876 5875 5875 5874 5873 5872 5871 5869 5868 5867 5866 5865 5863 5862 5860 5859 5858 5857 5856 5855 5854 5852 5851 5849
5892 5891 5889 5887 5886 5886 5885 5884 5883 5882 5880 5880 5879 5878 5876 5875 5874 5873 5873 5872 5871 5870 5869 5868 5867 5866 5864 5863 5863 5861 5860 5858 5857 5856 5855 5853 5852 5851 5850 5849 5847 5845
5889 5888 5886 5885 5884 5883 5882 5880 5879 5878 5876 5876 5875 5874 5873 5872 5871 5870 5869 5869 5868 5867 5866 5865 5863 5862 5861 5860 5859 5858 5857 5855 5854 5852 5851 5850 5848 5847 5846 5844 5843 5840
5886 5885 5884 5883 5882 5880 5878 5877 5875 5874 5872 5871 5871 5870 5869 5868 5867 5866 5866 5865 5864 5863 5862 5861 5860 5858 5857 5856 5855 5854 5853 5852 5851 5849 5848 5846 5844 5843 5842 5840 5838 5836
5884 5883 5881 5880 5879 5876 5874 5873 5871 5869 5868 5867 5866 5866 5865 5864 5863 5863 5862 5862 5861 5860 5859 5858 5856 5855 5854 5853 5852 5850 5849 5848 5847 5846 5844 5842 5841 5839 5838 5836 5834 5832
5881 5880 5878 5875 5875 5873 5870 5869 5868 5865 5864 5863 5862 5862 5860 5860 5859 5858 5858 5858 5857 5856 5855 5854 5853 5851 5850 5849 5848 5846 5845 5844 5843 5842 5840 5839 5837 5835 5834 5832 5830 5827
5877 5875 5873 5871 5870 5868 5866 5865 5862 5860 5858 5857 5857 5857 5856 5855 5855 5853 5853 5853 5853 5852 5852 5850 5848 5847 5846 5844 5843 5841 5840 5839 5838 5837 5835 5834 5833 5831 5829 5827 5825 5822
5872 5870 5868 5866 5866 5864 5862 5860 5857 5855 5854 5852 5851 5851 5850 5850 5849 5848 5848 5849 5849 5848 5847 5846 5845 5843 5841 5839 5838 5837 5836 5835 5834 5832 5831 5830 5829 5827 5825 5822 5820 5818
5867 5866 5864 5862 5860 5859 5858 5856 5853 5850 5849 5848 5846 5845 5844 5844 5845 5844 5844 5844 5844 5844 5843 5842 5841 5839 5837 5835 5834 5833 5832 5831 5829 5828 5827 5825 5824 5822 5820 5818 5815 5813
5862 5861 5860 5857 5855 5855 5854 5852 5848 5846 5845 5843 5841 5840 5839 5840 5840 5839 5839 5840 5839 5839 5838 5837 5836 5835 5834 5832 5831 5830 5828 5827 5825 5824 5823 5821 5820 5818 5815 5813 5811 5808
5857 5856 5855 5851 5850 5851 5850 5847 5845 5842 5840 5839 5838 5837 5836 5835 5835 5835 5836 5836 5835 5835 5834 5833 5832 5831 5830 5828 5827 5826 5824 5822 5821 5820 5819 5817 5815 5813 5811 5808 5806 5803
5854 5852 5849 5846 5845 5846 5844 5841 5839 5838 5837 5836 5836 5834 5832 5831 5832 5832 5831 5831 5830 5829 5828 5828 5827 5826 5825 5824 5822 5821 5819 5818 5817 5816 5814 5813 5811 5808 5806 5803 5800 5797
5853 5850 5846 5842 5839 5838 5837 5835 5832 5832 5834 5834 5833 5831 5829 5828 5829 5828 5827 5826 5825 5824 5823 5822 5822 5821 5819 5818 5817 5816 5815 5814 5813 5811 5809 5808 5806 5803 5801 5798 5795 5792
5850 5847 5843 5839 5836 5832 5830 5828 5826 5827 5830 5829 5828 5827 5825 5825 5825 5824 5822 5821 5820 5819 5818 5817 5816 5815 5814 5813 5813 5812 5811 5810 5808 5806 5804 5802 5800 5798 5795 5792 5789 5785
5845 5843 5840 5837 5833 5829 5826 5824 5823 5824 5824 5824 5823 5823 5821 5821 5821 5819 5817 5817 5816 5814 5813 5812 5811 5810 5810 5810 5809 5807 5806 5805 5803 5801 5799 5797 5795 5792 5789 5786 5783 5779
5840 5839 5836 5833 5830 5827 5824 5821 5820 5820 5820 5819 5819 5818 5817 5816 5815 5814 5812 5812 5811 5810 5810 5809 5807 5807 5807 5806 5805 5803 5801 5799 5797 5795 5794 5792 5789 5786 5783 5780 5777 5773
5836 5834 5832 5829 5826 5825 5822 5818 5816 5816 5815 5814 5814 5813 5813 5811 5810 5809 5808 5808 5807 5807 5806 5805 5804 5803 5803 5802 5800 5798 5795 5794 5792 5791 5789 5786 5783 5780 5777 5774 5771 5768
5831 5829 5826 5824 5822 5821 5818 5814 5812 5813 5812 5811 5810 5809 5808 5807 5806 5805 5804 5804 5804 5803 5802 5801 5800 5799 5798 5797 5795 5792 5790 5789 5788 5786 5783 5780 5777 5774 5771 5769 5766 5763
5826 5824 5822 5819 5816 5815 5814 5811 5810 5810 5809 5808 5806 5805 5804 5803 5802 5801 5800 5800 5800 5799 5798 5797 5796 5794 5793 5791 5788 5785 5784 5784 5783 5780 5777 5774 5771 5769 5766 5764 5761 5758
5822 5820 5818 5815 5812 5810 5809 5809 5807 5806 5805 5804 5803 5802 5801 5799 5798 5797 5797 5797 5796 5795 5794 5793 5791 5790 5788 5786 5782 5780 5780 5779 5777 5774 5772 5769 5766 5764 5761 5758 5755 5752
5818 5817 5814 5811 5808 5805 5804 5803 5803 5801 5800 5800 5799 5798 5796 5795 5794 5794 5794 5793 5792 5791 5790 5788 5787 5785 5783 5780 5778 5776 5774 5773 5771 5769 5766 5764 5761 5758 5755 5752 5750 5747
5813 5812 5810 5808 5806 5802 5799 5797 5796 5795 5795 5795 5794 5793 5792 5790 5790 5790 5789 5788 5787 5786 5785 5784 5782 5780 5777 5774 5772 5771 5769 5768 5766 5764 5762 5759 5756 5753 5750 5747 5745 5742
5808 5807 5806 5804 5802 5799 5795 5792 5790 5789 5790 5790 5790 5789 5788 5787 5786 5786 5785 5784 5783 5781 5779 5778 5777 5774 5771 5768 5766 5766 5765 5763 5762 5760 5757 5754 5751 5748 5745 5742 5739 5737